Location: Aula-Vintri
(58.3875°N, 22.4322°E)
Time: 05:06:23
(UTC+00:00)

Cosmos 1328 - Pass Details

Date: 13 October 2019
Orbit: 531 x 553 km, 82.5° (Epoch: 18 November)

Event Time Altitude Azimuth Distance (km) Brightness Sun altitude
Rises 16:50:55 0° 347° (NNW) 2,736 7.6 -11.2°
Reaches altitude 10° 16:53:07 10° 351° (N) 1,834 6.7 -11.5°
Maximum altitude 16:57:08 67° 74° (ENE) 596 3.7 -12.0°
Drops below altitude 10° 17:01:05 10° 158° (SSE) 1,806 6.2 -12.5°
Sets 17:03:14 0° 161° (SSE) 2,690 7.1 -12.8°
